{"data":{"norad_id":36745,"intl_designator":"2010-032B","name":"ARABSAT-5A","alt_names":[],"object_type":"PAYLOAD","status":"ACTIVE","operator":null,"country":"AB","launch_date":"2010-06-26","launch_site_code":"FRGUI","launch_vehicle":null,"mission":null,"orbit_class":"UNKNOWN","rcs_meters":11.1427,"size_class":null,"mass_kg":null,"dimensions":null,"purposes":["comms"],"wikipedia_slug":null,"has_3d_model":false,"image_url":null,"decayed_at":null,"tle_current":{"epoch":"2026-05-25T03:53:16.431936Z","epoch_age_seconds":67825,"freshness":"FRESH","line1":"1 36745U 10032B   26145.16199574  .00000151  00000+0  00000+0 0  9996","line2":"2 36745   0.0734  53.3033 0005179  34.7149 243.5677  1.00269151 58415","mean_motion":1.00269151,"eccentricity":0.0005179,"inclination_deg":0.0734,"raan_deg":53.3033,"arg_perigee_deg":34.7149,"mean_anomaly_deg":243.5677,"bstar":0,"rev_number":5841,"period_min":1436.1346292839,"perigee_km":35765.495886061,"apogee_km":35809.170880284,"semimajor_km":42165.470383172,"source":"CELESTRAK","updated_at":"2026-05-25T13:38:13.893722Z"}}}